This is the latest recevied weather packets stored in our database for station/object EA5FOG-11. If no packets are shown the sender has not sent any weather packets the latest 10 day(s).
| Time | Temp. | Humidity | Pressure | Rain* | Wind** | Luminosity | Snow |
|---|---|---|---|---|---|---|---|
| 1777434528 | 15° C | 65% | 952.7 hPa | - | - | - | - |
| 1777433627 | 15° C | 65% | 952.7 hPa | - | - | - | - |
| 1777432726 | 15° C | 64% | 952.7 hPa | - | - | - | - |
| 1777431825 | 15° C | 64% | 952.7 hPa | - | - | - | - |
| 1777430925 | 14.44° C | 64% | 952.8 hPa | - | - | - | - |
| 1777430024 | 13.89° C | 64% | 952.7 hPa | - | - | - | - |
| 1777429123 | 13.89° C | 63% | 952.7 hPa | - | - | - | - |
| 1777428222 | 14.44° C | 63% | 952.4 hPa | - | - | - | - |
| 1777427321 | 14.44° C | 63% | 952.3 hPa | - | - | - | - |
| 1777426420 | 14.44° C | 63% | 952.2 hPa | - | - | - | - |
| 1777425520 | 15° C | 62% | 952 hPa | - | - | - | - |
| 1777424619 | 15° C | 62% | 951.8 hPa | - | - | - | - |
| 1777423718 | 15° C | 63% | 952 hPa | - | - | - | - |
| 1777422817 | 14.44° C | 62% | 952.2 hPa | - | - | - | - |
| 1777421916 | 15° C | 62% | 952.5 hPa | - | - | - | - |
| 1777421016 | 15° C | 62% | 952.6 hPa | - | - | - | - |
| 1777420115 | 15° C | 61% | 952.6 hPa | - | - | - | - |
| 1777419214 | 15° C | 61% | 952.9 hPa | - | - | - | - |
| 1777417435 | 15.56° C | 60% | 953 hPa | - | - | - | - |
| 1777416535 | 16.11° C | 59% | 953.1 hPa | - | - | - | - |
| 1777415634 | 16.67° C | 59% | 953.2 hPa | - | - | - | - |
| 1777414733 | 16.67° C | 58% | 953.3 hPa | - | - | - | - |
| 1777413832 | 16.67° C | 58% | 953.3 hPa | - | - | - | - |
| 1777412931 | 16.67° C | 58% | 953.4 hPa | - | - | - | - |
| 1777412030 | 16.67° C | 57% | 953.4 hPa | - | - | - | - |
* Rain since midnight (hover to see other rain measurements)
** Current wind speed in m/s (hover to see current wind gust speed)